DW9665 Sarajevo BA current weather conditions

sailwx.info

Wind from 270

Air temperature -1.1° C
Dewpoint -5.9° C

Last reported at 2015-Mar-04 04:47 UTC.
Time now 2015-Mar-04 07:06 UTC

Location: N 43°50' E 018°21'.
View on Google Maps.

See reports from other nearby stations

  
Tides and Currents Weather Stations Pressure Air Temp Water Temp Dewpoint Dewpoint Depression Visibility Wind Speed Wind Dir Waves Ship Positions
date/time (UTC)wind fromknots sea level pressurealtimeterstation pressurevisibilityair tempwater tempwave heightnotes
2015-Mar-04 04:47 270 -1.1
2015-Mar-04 04:32 270 1 gusting 1 -1.1
2015-Mar-04 04:17 180 -1.1
2015-Mar-04 04:02 180 -1.1
2015-Mar-04 03:47 180 0 gusting 1 -1.1
2015-Mar-04 03:32 292 0 gusting 1 -1.1
2015-Mar-04 03:17 180 0 gusting 1 -0.6
2015-Mar-04 03:02 180 -0.6
2015-Mar-04 02:47 180 -0.6
2015-Mar-04 02:32 180 0 gusting 3 -0.6
2015-Mar-04 02:17 270 -0.6
2015-Mar-04 01:32 180 -0.0
2015-Mar-04 01:17 270 1 gusting 3 -0.0
2015-Mar-04 01:02 292 0 gusting 5 -0.0
2015-Mar-04 00:47 180 0 gusting 2 0.6
2015-Mar-04 00:32 180 0 gusting 2 0.6
2015-Mar-04 00:17 270 0 gusting 0 0.6
2015-Mar-04 00:02 270 0.6
2015-Mar-03 23:47 270 1 gusting 1 1.1
2015-Mar-03 23:32 270 1.1
2015-Mar-03 23:17 180 1.7
2015-Mar-03 23:02 180 1 gusting 3 1.7
2015-Mar-03 22:47 180 0 gusting 0 1.7
2015-Mar-03 22:32 338 1.7
2015-Mar-03 22:17 270 0 gusting 2 1.7
2015-Mar-03 22:02 270 2.2
2015-Mar-03 21:47 270 1 gusting 3 2.8
2015-Mar-03 21:32 270 2 gusting 2 3.3
2015-Mar-03 21:17 045 0 gusting 2 3.3
2015-Mar-03 21:02 045 3.9
2015-Mar-03 20:47 338 3.9
2015-Mar-03 20:32 022 3.9
2015-Mar-03 20:17 135 3.9
2015-Mar-03 20:02 158 3.9
2015-Mar-03 19:47 158 0 gusting 5 3.9
2015-Mar-03 19:32 158 3 gusting 5 5.0
2015-Mar-03 19:17 068 2 gusting 8 5.0
2015-Mar-03 19:02 292 2 gusting 6 5.6
2015-Mar-03 18:47 090 2 gusting 5 5.6
2015-Mar-03 18:32 068 1 gusting 3 6.1
2015-Mar-03 18:17 022 1 gusting 3 6.1
2015-Mar-03 18:02 180 6.7
2015-Mar-03 17:47 292 1 gusting 5 7.2
2015-Mar-03 17:32 090 3 gusting 7 7.2
2015-Mar-03 17:17 112 2 gusting 5 7.8
2015-Mar-03 17:02 045 7.8
2015-Mar-03 16:47 292 0 gusting 5 7.8
2015-Mar-03 16:32 090 1 gusting 5 8.3
2015-Mar-03 16:17 068 2 gusting 7 8.3
2015-Mar-03 16:02 338 3 gusting 8 8.9
2015-Mar-03 15:47 315 2 gusting 5 8.9
2015-Mar-03 15:32 8.9
2015-Mar-03 15:17 9.4
2015-Mar-03 15:02 292 2 gusting 7 9.4
2015-Mar-03 14:47 338 2 gusting 8 8.9
2015-Mar-03 14:32 068 3 gusting 9 8.9
2015-Mar-03 14:17 045 4 gusting 7 9.4
2015-Mar-03 14:02 022 3 gusting 2 9.4
2015-Mar-03 13:47 022 10.0
2015-Mar-03 13:32 068 3 gusting 5 9.4
2015-Mar-03 13:17 022 3 gusting 6 8.9
2015-Mar-03 13:02 045 5 gusting 10 8.9
2015-Mar-03 12:47 9.4
2015-Mar-03 12:32 158 10.6
2015-Mar-03 12:17 158 2 gusting 3 9.4
2015-Mar-03 12:02 180 0 gusting 3 9.4
2015-Mar-03 11:47 068 2 gusting 3 9.4
2015-Mar-03 11:32 338 2 gusting 3 9.4
2015-Mar-03 11:17 292 0 gusting 6 8.3
2015-Mar-03 11:02 338 5 gusting 7 8.3
2015-Mar-03 10:47 292 3 gusting 5 8.3
2015-Mar-03 10:32 180 1 gusting 4 7.8
2015-Mar-03 10:17 270 2 gusting 4 7.2
2015-Mar-03 10:02 292 0 gusting 6 7.2
2015-Mar-03 09:47 292 2 gusting 5 7.2
2015-Mar-03 09:32 270 3 gusting 5 7.8
2015-Mar-03 09:17 270 0 gusting 5 7.2
2015-Mar-03 09:02 270 0 gusting 4 7.2
2015-Mar-03 08:47 315 0 gusting 3 7.2
2015-Mar-03 08:32 180 0 gusting 2 7.2
2015-Mar-03 08:17 068 7.2
2015-Mar-03 08:02 158 6.7
2015-Mar-03 07:47 045 5.6
2015-Mar-03 07:32 180 5.0
2015-Mar-03 07:17 270 0 gusting 3 4.4
2015-Mar-03 07:02 270 3.9
2015-Mar-03 06:47 270 0 gusting 3 3.9
2015-Mar-03 06:32 292 1 gusting 3 3.3
2015-Mar-03 06:17 270 1 gusting 3 3.3
2015-Mar-03 06:02 292 3.3
2015-Mar-03 05:47 270 3.3
2015-Mar-03 05:32 270 0 gusting 3 3.3
2015-Mar-03 05:17 180 0 gusting 3 3.3
2015-Mar-03 05:02 270 0 gusting 4 3.9
2015-Mar-03 04:47 338 1 gusting 5 3.9
2015-Mar-03 04:32 090 1 gusting 3 3.9
2015-Mar-03 04:17 090 1 gusting 5 3.9
2015-Mar-03 04:02 338 2 gusting 5 3.3
2015-Mar-03 03:47 315 2 gusting 2 3.9
2015-Mar-03 03:32 112 3.3
2015-Mar-03 03:17 158 3.9
2015-Mar-03 03:02 158 0 gusting 6 3.9
2015-Mar-03 02:47 158 3.9
2015-Mar-03 02:32 3.3
2015-Mar-03 02:17 338 1 gusting 5 3.3
2015-Mar-03 02:02 338 1 gusting 5 3.9
2015-Mar-03 01:47 180 3.9
2015-Mar-03 01:32 292 1 gusting 5 3.9
2015-Mar-03 01:17 270 2 gusting 6 3.9
2015-Mar-03 01:02 180 0 gusting 13 3.9
2015-Mar-03 00:47 292 10 gusting 13 4.4
2015-Mar-03 00:32 270 6 gusting 11 4.4
2015-Mar-03 00:17 292 6 gusting 11 5.0
2015-Mar-03 00:02 270 6 gusting 9 5.6
2015-Mar-02 23:47 112 3 gusting 7 5.6
2015-Mar-02 23:32 270 6 gusting 14 5.6
2015-Mar-02 23:17 270 9 gusting 17 6.1
2015-Mar-02 23:02 338 6 gusting 8 7.2
2015-Mar-02 22:47 338 3 gusting 3 7.2
2015-Mar-02 22:32 338 7.2
2015-Mar-02 22:17 135 7.2
2015-Mar-02 22:02 180 7.2
2015-Mar-02 21:47 338 2 gusting 3 7.8
2015-Mar-02 21:32 068 7.8
2015-Mar-02 21:17 338 0 gusting 4 7.8
2015-Mar-02 21:02 068 2 gusting 10 8.3
2015-Mar-02 20:32 292 3 gusting 2 8.3
2015-Mar-02 20:17 045 8.3
2015-Mar-02 20:02 090 4 gusting 3 8.9
2015-Mar-02 19:47 022 2 gusting 5 8.9
2015-Mar-02 19:32 112 0 gusting 6 9.4
2015-Mar-02 19:17 112 2 gusting 7 9.4
2015-Mar-02 19:02 180 5 gusting 10 9.4
2015-Mar-02 18:47 090 2 gusting 11 9.4
2015-Mar-02 18:32 158 5 gusting 11 10.0
2015-Mar-02 18:17 135 2 gusting 15 10.0
2015-Mar-02 18:02 135 6 gusting 13 10.0
2015-Mar-02 17:47 090 3 gusting 13 10.0
2015-Mar-02 17:32 135 8 gusting 14 10.0
2015-Mar-02 17:17 090 1 gusting 10 10.0
2015-Mar-02 17:02 180 4 gusting 19 10.0
2015-Mar-02 16:47 180 13 gusting 15 10.0
2015-Mar-02 16:32 135 9 gusting 19 10.0
2015-Mar-02 16:17 158 10 gusting 19 10.0
2015-Mar-02 16:02 158 5 gusting 19 10.0
2015-Mar-02 15:47 135 9 gusting 14 10.6
2015-Mar-02 15:32 135 6 gusting 14 10.0
2015-Mar-02 15:17 068 9 gusting 21 10.0
2015-Mar-02 15:02 180 5 gusting 20 10.0
2015-Mar-02 14:47 180 12 gusting 22 10.0
2015-Mar-02 14:32 068 6 gusting 23 10.0
2015-Mar-02 14:17 158 11 gusting 22 10.6
2015-Mar-02 14:02 180 6 gusting 13 11.1
2015-Mar-02 13:47 112 3 gusting 13 11.1
2015-Mar-02 13:32 180 6 gusting 11 11.7
2015-Mar-02 13:17 158 4 gusting 13 12.2
2015-Mar-02 13:02 180 5 gusting 13 12.2
2015-Mar-02 12:47 090 8 gusting 14 12.8
2015-Mar-02 12:32 315 7 gusting 16 12.8
2015-Mar-02 12:17 158 11 gusting 9 13.3
2015-Mar-02 12:02 270 6 gusting 4 13.3
2015-Mar-02 11:47 090 13.3
2015-Mar-02 11:32 068 12.8
2015-Mar-02 11:17 045 0 gusting 1 12.8
2015-Mar-02 11:02 022 12.8
2015-Mar-02 10:47 022 1 gusting 5 11.7
2015-Mar-02 10:32 068 2 gusting 3 12.2
2015-Mar-02 10:17 090 12.2
2015-Mar-02 10:02 180 11.7
2015-Mar-02 09:47 135 11.1
2015-Mar-02 09:32 090 2 gusting 5 10.6
2015-Mar-02 09:17 180 2 gusting 5 10.0
2015-Mar-02 09:02 135 3 gusting 4 9.4
2015-Mar-02 08:47 180 0 gusting 2 8.3
2015-Mar-02 08:32 158 0 gusting 3 7.8
2015-Mar-02 08:17 180 7.2
2015-Mar-02 08:02 112 6.7
2015-Mar-02 07:47 158 0 gusting 2 6.7
2015-Mar-02 07:32 292 1 gusting 5 6.1
2015-Mar-02 07:17 292 3 gusting 5 5.6
2015-Mar-02 07:02 158 5.6